TimeCDT,TemperatureF,Dew PointF,Humidity,Sea Level PressureIn,VisibilityMPH,Wind Direction,Wind SpeedMPH,Gust SpeedMPH,PrecipitationIn,Events,Conditions,WindDirDegrees,DateUTC
12:13 AM,41.0,26.6,57,30.03,10.0,WNW,6.9,-,N/A,,Overcast,290,2012-10-10 05:13:00
12:34 AM,35.6,26.6,70,30.03,10.0,West,6.9,-,N/A,,Scattered Clouds,270,2012-10-10 05:34:00
12:54 AM,33.8,24.8,70,30.03,10.0,West,5.8,-,N/A,,Scattered Clouds,280,2012-10-10 05:54:00
1:14 AM,33.8,24.8,70,30.03,10.0,WNW,6.9,-,N/A,,Scattered Clouds,290,2012-10-10 06:14:00
1:34 AM,30.2,24.8,80,30.04,10.0,West,6.9,-,N/A,,Clear,270,2012-10-10 06:34:00
1:54 AM,30.2,24.8,80,30.05,10.0,West,5.8,-,N/A,,Scattered Clouds,280,2012-10-10 06:54:00
2:14 AM,32.0,24.8,75,30.05,10.0,WNW,5.8,-,N/A,,Scattered Clouds,290,2012-10-10 07:14:00
2:33 AM,28.4,23.0,80,30.05,10.0,West,5.8,-,N/A,,Clear,280,2012-10-10 07:33:00
2:54 AM,28.4,23.0,80,30.05,10.0,WNW,6.9,-,N/A,,Clear,290,2012-10-10 07:54:00
3:14 AM,26.6,23.0,86,30.05,10.0,West,6.9,-,N/A,,Clear,280,2012-10-10 08:14:00
3:34 AM,26.6,23.0,86,30.05,10.0,WSW,8.1,-,N/A,,Clear,250,2012-10-10 08:34:00
3:53 AM,26.6,24.8,93,30.05,10.0,West,8.1,-,N/A,,Scattered Clouds,270,2012-10-10 08:53:00
4:13 AM,28.4,26.6,93,30.06,10.0,West,5.8,-,N/A,,Mostly Cloudy,280,2012-10-10 09:13:00
4:34 AM,28.4,24.8,86,30.06,10.0,WNW,4.6,-,N/A,,Scattered Clouds,290,2012-10-10 09:34:00
4:53 AM,26.6,24.8,93,30.06,10.0,WNW,3.5,-,N/A,,Clear,290,2012-10-10 09:53:00
5:13 AM,24.8,21.2,86,30.06,10.0,West,4.6,-,N/A,,Clear,280,2012-10-10 10:13:00
5:34 AM,24.8,24.8,100,30.06,10.0,West,5.8,-,N/A,,Clear,260,2012-10-10 10:34:00
5:54 AM,24.8,21.2,86,30.06,10.0,WSW,4.6,-,N/A,,Clear,240,2012-10-10 10:54:00
6:13 AM,26.6,24.8,93,30.06,10.0,WSW,6.9,-,N/A,,Clear,250,2012-10-10 11:13:00
6:33 AM,26.6,24.8,93,30.08,10.0,West,9.2,-,N/A,,Clear,260,2012-10-10 11:33:00
6:53 AM,26.6,24.8,93,30.08,10.0,WSW,5.8,-,N/A,,Clear,240,2012-10-10 11:53:00
7:34 AM,26.6,24.8,93,30.08,10.0,SW,6.9,-,N/A,,Scattered Clouds,230,2012-10-10 12:34:00
7:54 AM,30.2,28.4,93,30.08,10.0,SW,3.5,-,N/A,,Mostly Cloudy,230,2012-10-10 12:54:00
8:13 AM,30.2,28.4,93,30.08,10.0,WSW,4.6,-,N/A,,Scattered Clouds,240,2012-10-10 13:13:00
8:33 AM,32.0,30.2,93,30.08,7.0,SW,4.6,-,N/A,,Clear,220,2012-10-10 13:33:00
8:53 AM,35.6,30.2,81,30.08,10.0,SSW,5.8,-,N/A,,Clear,210,2012-10-10 13:53:00
9:14 AM,35.6,30.2,81,30.08,10.0,SW,3.5,-,N/A,,Clear,220,2012-10-10 14:14:00
9:34 AM,37.4,30.2,75,30.08,10.0,SW,5.8,-,N/A,,Clear,220,2012-10-10 14:34:00
9:54 AM,39.2,30.2,70,30.08,10.0,SW,6.9,-,N/A,,Clear,220,2012-10-10 14:54:00
10:14 AM,41.0,30.2,65,30.08,10.0,SW,11.5,-,N/A,,Clear,230,2012-10-10 15:14:00
10:35 AM,44.6,28.4,53,30.08,10.0,West,9.2,-,N/A,,Clear,260,2012-10-10 15:35:00
10:53 AM,44.6,28.4,53,30.08,10.0,WSW,8.1,-,N/A,,Clear,240,2012-10-10 15:53:00
11:14 AM,48.2,28.4,46,30.07,10.0,WSW,6.9,-,N/A,,Clear,250,2012-10-10 16:14:00
11:34 AM,48.2,26.6,43,30.07,10.0,West,8.1,-,N/A,,Clear,260,2012-10-10 16:34:00
11:53 AM,50.0,26.6,40,30.06,10.0,WSW,6.9,-,N/A,,Clear,240,2012-10-10 16:53:00
12:13 PM,51.8,24.8,35,30.07,10.0,West,11.5,-,N/A,,Clear,260,2012-10-10 17:13:00
12:34 PM,53.6,21.2,28,30.06,10.0,WSW,10.4,-,N/A,,Clear,250,2012-10-10 17:34:00
12:53 PM,53.6,21.2,28,30.04,10.0,West,10.4,-,N/A,,Clear,260,2012-10-10 17:53:00
1:14 PM,55.4,17.6,23,30.04,10.0,West,12.7,20.7,N/A,,Scattered Clouds,260,2012-10-10 18:14:00
1:33 PM,55.4,19.4,25,30.03,10.0,WSW,10.4,19.6,N/A,,Scattered Clouds,240,2012-10-10 18:33:00
1:54 PM,53.6,19.4,26,30.02,10.0,SW,10.4,-,N/A,,Scattered Clouds,230,2012-10-10 18:54:00
2:13 PM,55.4,19.4,25,30.01,10.0,West,8.1,-,N/A,,Scattered Clouds,270,2012-10-10 19:13:00
2:33 PM,53.6,19.4,26,30.00,10.0,West,10.4,-,N/A,,Mostly Cloudy,260,2012-10-10 19:33:00
2:54 PM,55.4,17.6,23,29.99,10.0,WSW,12.7,19.6,N/A,,Overcast,240,2012-10-10 19:54:00
3:13 PM,55.4,17.6,23,29.98,10.0,WSW,10.4,-,N/A,,Mostly Cloudy,250,2012-10-10 20:13:00
3:33 PM,55.4,17.6,23,29.97,10.0,West,8.1,-,N/A,,Scattered Clouds,260,2012-10-10 20:33:00
3:53 PM,55.4,17.6,23,29.95,10.0,WSW,6.9,-,N/A,,Scattered Clouds,240,2012-10-10 20:53:00
4:13 PM,55.4,19.4,25,29.93,10.0,SW,5.8,-,N/A,,Overcast,220,2012-10-10 21:13:00
4:33 PM,55.4,19.4,25,29.92,10.0,WSW,6.9,-,N/A,,Scattered Clouds,250,2012-10-10 21:33:00
4:53 PM,57.2,19.4,23,29.92,10.0,WSW,9.2,-,N/A,,Scattered Clouds,250,2012-10-10 21:53:00
5:15 PM,57.2,19.4,23,29.91,-9999.0,SW,5.8,-,N/A,,Unknown,230,2012-10-10 22:15:00
5:34 PM,57.2,17.6,21,29.90,10.0,SSW,4.6,-,N/A,,Scattered Clouds,210,2012-10-10 22:34:00
5:54 PM,57.2,19.4,23,29.88,10.0,SSE,6.9,-,N/A,,Clear,150,2012-10-10 22:54:00
6:14 PM,55.4,19.4,25,29.88,10.0,SE,6.9,-,N/A,,Clear,130,2012-10-10 23:14:00
6:33 PM,55.4,19.4,25,29.87,10.0,SE,6.9,-,N/A,,Clear,140,2012-10-10 23:33:00
6:54 PM,53.6,19.4,26,29.86,10.0,SSE,5.8,-,N/A,,Clear,150,2012-10-10 23:54:00
7:14 PM,53.6,21.2,28,29.85,10.0,SSE,6.9,-,N/A,,Clear,150,2012-10-11 00:14:00
7:33 PM,53.6,21.2,28,29.85,10.0,SSE,6.9,-,N/A,,Clear,150,2012-10-11 00:33:00
7:54 PM,53.6,21.2,28,29.84,10.0,SSE,8.1,-,N/A,,Scattered Clouds,150,2012-10-11 00:54:00
8:14 PM,51.8,21.2,30,29.83,10.0,SSE,10.4,-,N/A,,Scattered Clouds,160,2012-10-11 01:14:00
8:34 PM,51.8,21.2,30,29.82,10.0,SSE,9.2,-,N/A,,Clear,160,2012-10-11 01:34:00
8:54 PM,51.8,23.0,33,29.81,10.0,SSE,8.1,-,N/A,,Clear,160,2012-10-11 01:54:00
9:13 PM,53.6,24.8,33,29.80,10.0,South,10.4,-,N/A,,Scattered Clouds,170,2012-10-11 02:13:00
9:34 PM,53.6,26.6,35,29.79,10.0,South,10.4,-,N/A,,Clear,170,2012-10-11 02:34:00
9:54 PM,53.6,26.6,35,29.78,10.0,South,10.4,-,N/A,,Clear,180,2012-10-11 02:54:00
10:14 PM,53.6,26.6,35,29.78,10.0,SSW,10.4,-,N/A,,Clear,200,2012-10-11 03:14:00
10:34 PM,53.6,28.4,38,29.77,10.0,SSW,9.2,-,N/A,,Clear,200,2012-10-11 03:34:00
10:54 PM,53.6,28.4,38,29.77,10.0,SSW,4.6,-,N/A,,Clear,200,2012-10-11 03:54:00
11:14 PM,55.4,28.4,36,29.77,10.0,SW,5.8,-,N/A,,Clear,220,2012-10-11 04:14:00
11:33 PM,55.4,28.4,36,29.81,10.0,NW,18.4,29.9,N/A,,Clear,320,2012-10-11 04:33:00
11:54 PM,53.6,28.4,38,29.80,10.0,NNW,8.1,-,N/A,,Scattered Clouds,330,2012-10-11 04:54:00